ORBCOMM FM119 [-] (41180 NORAD) Tracking and Keplerian Element Data

This shows tracking and keplerian element data for the satellite.

Feedback or suggestion? Click here.




ElementValue
Catalog41180
NameORBCOMM FM119 [-]
Epoch Orbit15576
Epoch Day322.90969285
Epoch Year2018
RAAN333.9141
Inclination47.0026
Eccentricity0.0002822
Argument of Perigee255.0773
Mean Anonmoly104.9799
Mean Motion14.54700802
Decay Rate-7.7E-07
L11 41180U 15081B 18322.90969285 -.00000077 00000-0 20536-4 0 9998
L22 41180 47.0026 333.9141 0002822 255.0773 104.9799 14.54700802155766

Live tracking and technical data element details for ORBCOMM FM119 [-] (NORAD 41180). ORBCOMM FM119 [-] can be tracked NOW for your location showing map with azimuth and elevation plus other details from your city location.

Track the satellite on the map from your city or location and see movement details for azimuth, elevation, latitude, longitude, range, height, and movement on the map or in text.







IsCatalogInMostPopularTable: catalog: 41180, numindb: 103
Update: records affected: 1



GetName: 41180 ORBCOMM FM119 [-]

Hit Count: updated at: Tue, 20 Nov 2018 00:36:16 GMT